835  
NZUS99 KSGF 232307  
HRRSGF  
 
HOURLY WEATHER  
NATIONAL WEATHER SERVICE SPRINGFIELD MO  
600 PM CDT SAT MAR 23 2019  
   
.....SGF CWA...
 
 
 
CITY SKY/WX TMP DP RH WIND PRES REMARKS  
SPRINGFIELD LGT RAIN 51 43 74 SE13 30.09S  
JOPLIN LGT RAIN 51 49 92 NE6 30.05S FOG  
WEST PLAINS CLOUDY 51 46 83 E8 30.15F  
ROLLA LGT RAIN 54 36 50 SE17G23 30.16S  
OSAGE BEACH CLOUDY 58 37 45 SW6 30.16R  
BRANSON LGT RAIN 48 45 87 SE15 30.11F  
   
.....SURROUNDING SGF CWA...
 
 
 
CITY SKY/WX TMP DP RH WIND PRES REMARKS  
CHANUTE CLOUDY 55 49 80 SE14 30.01R  
PARSONS LGT RAIN 52 50 93 SE9 30.03R FOG  
COFFEYVILLE LGT RAIN 52 50 93 SE10 30.02R FOG  
EMPORIA CLOUDY 54 47 77 S20G28 29.97S  
GROVE OK LGT RAIN 52 48 87 CALM 30.05S  
ROGERS AR LGT RAIN 50 48 93 SE15 30.07S  
SILOAM SPRINGS LGT RAIN 51 49 92 SE13 30.05F  
HARRISON AR LGT RAIN 52 41 66 E10 30.12F  
NEAR YELLVILLE CLOUDY 53 47 79 NE3 30.14F  
   
.....KANSAS AND MISSOURI...
 
 
 
CITY SKY/WX TMP DP RH WIND PRES REMARKS  
KANSAS CTY INT CLOUDY 57 46 66 S9 30.01R  
DOWNTOWN KC CLOUDY 60 45 57 SE7 30.00R  
COLUMBIA CLOUDY 59 36 42 S10 30.14R  
SEDALIA CLOUDY 52 32 46 S16 30.09S  
ST JOSEPH N/A N/A N/A N/A MISG 30.02F  
ST LOUIS CLOUDY 57 31 37 SE12 30.20F  
SPIRIT OF STL PTSUNNY 59 32 36 SE3 30.18F  
KIRKSVILLE CLOUDY 55 36 48 SE12 30.11F  
WICHITA PTSUNNY 62 49 62 SE13 29.92F  
TOPEKA CLOUDY 57 46 66 S13 29.99S  
OLATHE CLOUDY 56 47 71 SW9 30.01R  
   
.....TENNESSEE...
 
 
 
CITY SKY/WX TMP DP RH WIND PRES REMARKS  
MEMPHIS PTSUNNY 66 32 28 VRB3 30.17F  
NASHVILLE PTSUNNY 62 21 20 N6 30.23S  
   
.....ARKANSAS....
 
 
 
CITY SKY/WX TMP DP RH WIND PRES REMARKS  
FAYETTEVILLE RAIN 50 47 89 E8 30.07R FOG  
FT SMITH LGT RAIN 56 48 74 E6 30.05R  
LITTLE ROCK CLOUDY 67 40 37 SE12 30.10F  
   
.....OKLAHOMA....
 
 
 
CITY SKY/WX TMP DP RH WIND PRES REMARKS  
TULSA CLOUDY 54 49 83 SE13 30.01R  
PONCA CITY PTSUNNY 61 50 67 E13 29.92F  
MCALESTER CLOUDY 56 54 93 E7 29.98F  
OKLAHOMA CITY PTSUNNY 69 58 67 S10 29.87S  
   
.....IOWA.........
 
 
 
CITY SKY/WX TMP DP RH WIND PRES REMARKS  
DES MOINES CLOUDY 53 32 44 SE12 30.10S  
QUAD CITIES FAIR 55 30 38 SE10 30.18S  
   
.....ILLINOIS.....
 
 
 
CITY SKY/WX TMP DP RH WIND PRES REMARKS  
QUINCY CLOUDY 53 33 46 SE12 30.15F  
CHICAGO FAIR 51 24 34 S8 30.21F  
 
 
 
CLICK HERE TO GO TO PREVIOUS BULLETINS.

The Nexlab MO Page
The Nexlab KS Page Main Text Page